FW7227 Weather Reports


time (UTC)temp
C
wind
direction
speed
KPH
gust
KPH
rain 1hr
cm
rain 24hr
cm
rain mn
cm
humidity
%
barometer
mb
20260510223104 13 360 0.0 4.8 0.00 0.00 0.00 80 1006.1
20260510222556 13 360 1.6 4.8 0.00 0.00 0.00 80 1006.1
20260510222056 13 0 1.6 4.8 0.00 0.00 0.00 80 1006.2
20260510221556 13 0 0.0 4.8 0.00 0.00 0.00 79 1006.2
20260510221056 13 0 1.6 4.8 0.00 0.00 0.00 79 1006.3
20260510220559 13 360 0.0 6.4 0.00 0.00 0.00 79 1006.3
20260510220056 13 360 1.6 6.4 0.00 0.00 0.00 79 1006.4
20260510215557 13 360 1.6 4.8 0.00 0.00 0.00 78 1006.5
20260510215058 13 0 0.0 3.2 0.00 0.00 0.00 78 1006.5
20260510214557 13 360 0.0 1.6 0.00 0.00 0.00 78 1006.6
20260510214056 13 0 0.0 4.8 0.00 0.00 0.00 78 1006.7
20260510213557 13 360 0.0 4.8 0.00 0.00 0.00 78 1006.6
20260510213057 13 174 1.6 4.8 0.00 0.00 0.00 78 1006.8
20260510212556 13 0 0.0 0.0 0.00 0.00 0.00 78 1006.8
20260510212056 14 0 0.0 0.0 0.00 0.00 0.00 79 1006.9
20260510211604 14 0 0.0 3.2 0.00 0.00 0.00 79 1006.9
20260510211057 14 0 0.0 3.2 0.00 0.00 0.00 80 1006.9
20260510210556 14 0 0.0 3.2 0.00 0.00 0.00 80 1007.0
20260510210058 14 0 0.0 1.6 0.00 0.00 0.00 80 1007.1
20260510205556 14 0 0.0 4.8 0.00 0.00 0.00 81 1007.1
20260510205056 14 0 0.0 4.8 0.00 0.00 0.00 81 1007.3
20260510204603 14 0 0.0 8.0 0.00 0.00 0.00 81 1007.2
20260510204055 14 174 1.6 8.0 0.00 0.00 0.00 81 1007.3
20260510203556 14 360 3.2 6.4 0.00 0.00 0.00 81 1007.4
20260510203057 14 360 1.6 6.4 0.00 0.00 0.00 81 1007.5
20260510202556 14 180 1.6 14.5 0.00 0.00 0.00 81 1007.5
20260510202055 14 173 4.8 14.5 0.00 0.00 0.00 82 1007.5
20260510201557 14 174 4.8 11.3 0.00 0.00 0.00 83 1007.5
20260510201056 14 169 3.2 9.7 0.00 0.00 0.00 83 1007.6
20260510200558 14 194 4.8 9.7 0.00 0.00 0.00 83 1007.7
20260510200111 14 0 0.0 0.0 0.00 0.00 0.00 82 1007.6
20260510195556 14 0 0.0 0.0 0.00 0.00 0.00 81 1007.5
20260510195056 14 0 0.0 0.0 0.00 0.00 0.00 81 1007.5
20260510194608 15 0 0.0 3.2 0.00 0.00 0.00 81 1007.6
20260510194057 15 0 0.0 3.2 0.00 0.00 0.00 80 1007.6
20260510193558 15 0 0.0 3.2 0.00 0.00 0.00 80 1007.6
20260510193113 15 0 0.0 3.2 0.00 0.00 0.00 79 1007.7
20260510192555 15 0 0.0 0.0 0.00 0.00 0.00 79 1007.6
20260510192056 15 0 0.0 0.0 0.00 0.00 0.00 78 1007.7
20260510191558 15 0 0.0 0.0 0.00 0.00 0.00 77 1007.7
20260510191057 15 0 0.0 0.0 0.00 0.00 0.00 76 1007.7
20260510190555 16 0 0.0 0.0 0.00 0.00 0.00 76 1007.7
20260510190055 16 0 0.0 0.0 0.00 0.00 0.00 75 1007.7
20260510185556 16 0 0.0 0.0 0.00 0.00 0.00 75 1007.7
20260510185057 16 0 0.0 0.0 0.00 0.00 0.00 74 1007.7
20260510184603 16 0 0.0 0.0 0.00 0.00 0.00 74 1007.8
20260510184056 16 0 0.0 0.0 0.00 0.00 0.00 74 1007.8
20260510183556 17 0 0.0 0.0 0.00 0.00 0.00 73 1007.8
20260510183056 17 0 0.0 0.0 0.00 0.00 0.00 73 1007.8
20260510182555 17 0 0.0 0.0 0.00 0.00 0.00 73 1007.8
20260510182057 17 0 0.0 0.0 0.00 0.00 0.00 73 1007.9
20260510181557 17 0 0.0 1.6 0.00 0.00 0.00 72 1007.8
20260510181057 17 0 0.0 1.6 0.00 0.00 0.00 72 1007.9
20260510180557 17 0 0.0 1.6 0.00 0.00 0.00 73 1007.9
20260510180105 17 0 0.0 0.0 0.00 0.00 0.00 72 1008.0
20260510175556 17 0 0.0 0.0 0.00 0.00 0.00 72 1008.1
20260510175057 17 0 0.0 0.0 0.00 0.00 0.00 71 1008.0
20260510174603 17 0 0.0 0.0 0.00 0.00 0.00 71 1008.0
20260510174057 17 0 0.0 1.6 0.00 0.00 0.00 70 1008.0
20260510173559 17 0 0.0 1.6 0.00 0.00 0.00 70 1008.0
20260510173105 17 0 0.0 1.6 0.00 0.00 0.00 70 1008.0
20260510172556 17 0 0.0 1.6 0.00 0.00 0.00 70 1008.1
20260510172056 17 0 0.0 4.8 0.00 0.00 0.00 70 1008.1
20260510171601 17 0 1.6 8.0 0.00 0.00 0.00 69 1008.2
20260510171056 18 186 0.0 8.0 0.00 0.00 0.00 69 1008.3
20260510170556 18 185 3.2 8.0 0.00 0.00 0.00 68 1008.5
20260510170104 18 178 3.2 8.0 0.00 0.00 0.00 68 1008.5
20260510165558 18 190 1.6 8.0 0.00 0.00 0.00 67 1008.5
20260510165056 18 184 3.2 8.0 0.00 0.00 0.00 67 1008.5
20260510164609 18 185 3.2 6.4 0.00 0.00 0.00 66 1008.5
20260510164055 18 200 1.6 8.0 0.00 0.00 0.00 65 1008.6
20260510163600 18 207 3.2 8.0 0.00 0.00 0.00 64 1008.6
20260510163056 18 178 1.6 9.7 0.00 0.00 0.00 64 1008.6
20260510162556 18 166 1.6 9.7 0.00 0.00 0.00 64 1008.6
20260510162055 18 167 3.2 8.0 0.00 0.00 0.00 64 1008.7
20260510161600 18 171 4.8 12.9 0.00 0.00 0.00 63 1008.8
20260510161056 18 186 4.8 12.9 0.00 0.00 0.00 61 1008.9
20260510160559 18 175 3.2 11.3 0.00 0.00 0.00 61 1008.9
20260510160100 18 204 3.2 12.9 0.00 0.00 0.00 61 1009.0
20260510155556 18 165 4.8 12.9 0.00 0.00 0.00 61 1009.1
20260510155056 19 200 1.6 14.5 0.00 0.00 0.00 60 1009.1
20260510154559 19 172 3.2 19.3 0.00 0.00 0.00 59 1009.1
20260510154057 19 189 6.4 20.9 0.00 0.00 0.00 59 1009.1
20260510153555 20 136 11.3 20.9 0.00 0.00 0.00 59 1009.1
20260510153056 20 164 8.0 16.1 0.00 0.00 0.00 60 1009.2
20260510152557 20 181 8.0 16.1 0.00 0.00 0.00 62 1009.2
20260510152056 20 171 4.8 14.5 0.00 0.00 0.00 59 1009.3
20260510151558 20 178 4.8 12.9 0.00 0.00 0.00 60 1009.3
20260510151057 20 207 4.8 12.9 0.00 0.00 0.00 59 1009.5
20260510150600 20 184 6.4 12.9 0.00 0.00 0.00 59 1009.5
20260510150125 21 138 8.0 12.9 0.00 0.00 0.00 57 1009.6
20260510145600 21 173 4.8 14.5 0.00 0.00 0.00 57 1009.7
20260510145056 20 151 6.4 16.1 0.00 0.00 0.00 57 1009.7
20260510144619 20 161 8.0 16.1 0.00 0.00 0.00 56 1009.8
20260510144058 20 154 4.8 12.9 0.00 0.00 0.00 54 1009.8
20260510143557 20 188 6.4 12.9 0.00 0.00 0.00 53 1009.9
20260510143058 20 163 4.8 12.9 0.00 0.00 0.00 55 1010.0
20260510142556 20 173 3.2 12.9 0.00 0.00 0.00 55 1010.0
20260510142056 20 232 3.2 12.9 0.00 0.00 0.00 55 1010.0
20260510141603 20 192 6.4 12.9 0.00 0.00 0.00 54 1010.1
20260510141056 20 163 8.0 12.9 0.00 0.00 0.00 53 1010.1
20260510140555 20 182 1.6 9.7 0.00 0.00 0.00 53 1010.2
20260510140059 20 187 3.2 9.7 0.00 0.00 0.00 53 1010.3
20260510135556 20 175 4.8 9.7 0.00 0.00 0.00 54 1010.4
20260510135056 20 200 1.6 9.7 0.00 0.00 0.00 54 1010.4
20260510134607 20 189 3.2 9.7 0.00 0.00 0.00 52 1010.5
20260510134056 21 0 1.6 9.7 0.00 0.00 0.00 53 1010.6
20260510133557 21 236 4.8 16.1 0.00 0.00 0.00 53 1010.6
20260510133056 21 0 4.8 16.1 0.00 0.00 0.00 51 1010.6
20260510132556 21 208 1.6 8.0 0.00 0.00 0.00 51 1010.7
20260510132059 21 234 3.2 9.7 0.00 0.00 0.00 51 1010.8
20260510131601 22 191 4.8 14.5 0.00 0.00 0.00 49 1010.8
20260510131056 21 190 8.0 14.5 0.00 0.00 0.00 51 1010.9
20260510130556 21 230 4.8 12.9 0.00 0.00 0.00 50 1010.9
20260510130054 21 317 3.2 9.7 0.00 0.00 0.00 47 1011.0
20260510125557 21 0 3.2 9.7 0.00 0.00 0.00 49 1011.1
20260510125056 21 215 1.6 9.7 0.00 0.00 0.00 46 1011.2
20260510124601 21 186 4.8 11.3 0.00 0.00 0.00 49 1011.3
20260510124057 22 175 4.8 11.3 0.00 0.00 0.00 47 1011.4
20260510123557 22 198 1.6 11.3 0.00 0.00 0.00 47 1011.4
20260510123056 22 172 3.2 12.9 0.00 0.00 0.00 45 1011.4
20260510122556 22 251 3.2 12.9 0.00 0.00 0.00 46 1011.5
20260510122056 22 245 3.2 12.9 0.00 0.00 0.00 47 1011.5
20260510121557 22 167 0.0 14.5 0.00 0.00 0.00 52 1011.6
20260510121058 22 237 4.8 14.5 0.00 0.00 0.00 46 1011.6
20260510120557 22 0 3.2 11.3 0.00 0.00 0.00 47 1011.6
20260510120057 22 223 4.8 14.5 0.00 0.00 0.00 50 1011.7
20260510115556 22 226 3.2 14.5 0.00 0.00 0.00 47 1011.8
20260510115056 22 150 6.4 14.5 0.00 0.00 0.00 49 1011.8
20260510114614 22 171 0.0 16.1 0.00 0.00 0.00 53 1011.9
20260510114056 22 175 1.6 16.1 0.00 0.00 0.00 49 1011.9
20260510113556 21 168 3.2 16.1 0.00 0.00 0.00 51 1012.0
20260510113059 21 174 4.8 16.1 0.00 0.00 0.00 50 1012.0
20260510112556 21 360 3.2 14.5 0.00 0.00 0.00 51 1012.1
20260510112056 21 0 4.8 16.1 0.00 0.00 0.00 49 1012.1
20260510111601 21 167 8.0 16.1 0.00 0.00 0.00 52 1012.2
20260510111056 21 126 6.4 17.7 0.00 0.00 0.00 52 1012.3
20260510110556 21 165 6.4 17.7 0.00 0.00 0.00 51 1012.3
20260510110054 20 213 6.4 14.5 0.00 0.00 0.00 50 1012.3
20260510105556 20 95 6.4 14.5 0.00 0.00 0.00 53 1012.4
20260510105057 20 181 6.4 16.1 0.00 0.00 0.00 53 1012.5
20260510104600 20 175 8.0 16.1 0.00 0.00 0.00 51 1012.4
20260510104056 20 146 8.0 16.1 0.00 0.00 0.00 51 1012.5
20260510103556 20 140 4.8 17.7 0.00 0.00 0.00 54 1012.5
20260510103054 20 177 8.0 17.7 0.00 0.00 0.00 52 1012.7
20260510102556 20 161 8.0 14.5 0.00 0.00 0.00 51 1012.7
20260510102055 20 140 6.4 17.7 0.00 0.00 0.00 54 1012.8
20260510101602 20 107 4.8 17.7 0.00 0.00 0.00 54 1012.8
20260510101057 20 100 8.0 14.5 0.00 0.00 0.00 53 1012.8
20260510100556 20 112 6.4 12.9 0.00 0.00 0.00 51 1012.8
20260510095556 20 166 8.0 20.9 0.00 0.00 0.00 54 1012.8
20260510095055 20 109 4.8 12.9 0.00 0.00 0.00 53 1012.8
20260510094604 20 167 6.4 12.9 0.00 0.00 0.00 54 1012.9
20260510094056 19 0 3.2 16.1 0.00 0.00 0.00 54 1012.9
20260510093556 19 94 3.2 16.1 0.00 0.00 0.00 55 1012.9
20260510093058 19 94 3.2 14.5 0.00 0.00 0.00 56 1012.9
20260510092559 19 123 3.2 16.1 0.00 0.00 0.00 57 1013.0
20260510092056 19 128 8.0 16.1 0.00 0.00 0.00 59 1013.0
20260510091558 19 71 6.4 14.5 0.00 0.00 0.00 57 1013.1
20260510091056 19 92 4.8 16.1 0.00 0.00 0.00 57 1013.1
20260510090556 18 125 9.7 16.1 0.00 0.00 0.00 61 1013.2
20260510090056 18 360 3.2 12.9 0.00 0.00 0.00 63 1013.1
20260510085558 18 165 8.0 12.9 0.00 0.00 0.00 61 1013.1
20260510085056 18 117 3.2 12.9 0.00 0.00 0.00 64 1013.2
20260510084556 18 150 6.4 12.9 0.00 0.00 0.00 62 1013.2
20260510084056 17 59 6.4 12.9 0.00 0.00 0.00 63 1013.2
20260510083557 17 70 3.2 14.5 0.00 0.00 0.00 66 1013.2
20260510083100 17 80 8.0 14.5 0.00 0.00 0.00 66 1013.3
20260510082555 17 74 6.4 14.5 0.00 0.00 0.00 68 1013.2
20260510082056 17 94 6.4 12.9 0.00 0.00 0.00 69 1013.3
20260510081556 16 360 4.8 12.9 0.00 0.00 0.00 69 1013.3
20260510081056 16 360 3.2 8.0 0.00 0.00 0.00 70 1013.5
20260510080556 16 124 1.6 8.0 0.00 0.00 0.00 69 1013.5
20260510080100 15 146 3.2 9.7 0.00 0.00 0.00 70 1013.6
20260510075557 15 360 3.2 9.7 0.00 0.00 0.00 71 1013.6
20260510075056 15 360 1.6 8.0 0.00 0.00 0.00 73 1013.7
20260510074605 15 360 3.2 8.0 0.00 0.00 0.00 73 1013.7
20260510074055 14 360 3.2 9.7 0.00 0.00 0.00 74 1013.7
20260510073556 14 157 4.8 9.7 0.00 0.00 0.00 72 1013.8
20260510073100 14 144 3.2 9.7 0.00 0.00 0.00 73 1013.7
20260510072556 14 360 3.2 9.7 0.00 0.00 0.00 74 1013.9
20260510072056 13 162 3.2 8.0 0.00 0.00 0.00 74 1013.8
20260510071557 13 360 1.6 8.0 0.00 0.00 0.00 74 1013.9
20260510071056 13 360 3.2 9.7 0.00 0.00 0.00 74 1014.0
20260510070556 13 360 3.2 9.7 0.00 0.00 0.00 74 1014.0
20260510070109 13 360 3.2 9.7 0.00 0.00 0.00 75 1014.0
20260510065556 13 360 4.8 9.7 0.00 0.00 0.00 75 1014.1
20260510065056 13 360 3.2 8.0 0.00 0.00 0.00 77 1014.1
20260510064600 12 360 3.2 6.4 0.00 0.00 0.00 77 1014.1
20260510064056 12 360 3.2 12.9 0.00 0.00 0.00 78 1014.0
20260510063556 12 0 1.6 12.9 0.00 0.00 0.00 79 1014.1
20260510063100 11 360 8.0 12.9 0.00 0.00 0.00 80 1014.0
20260510062556 11 360 6.4 12.9 0.00 0.00 0.00 83 1014.1
20260510062056 11 360 3.2 9.7 0.00 0.00 0.00 84 1014.2
20260510061556 10 360 1.6 8.0 0.00 0.00 0.00 87 1014.2
20260510061057 10 360 1.6 8.0 0.00 0.00 0.00 89 1014.2
20260510060557 9 360 3.2 8.0 0.00 0.00 0.00 90 1014.2
20260510055556 8 360 1.6 4.8 0.00 0.00 0.00 91 1014.3
20260510055057 8 0 0.0 3.2 0.00 0.00 0.00 91 1014.4
20260510054601 8 0 0.0 3.2 0.00 0.00 0.00 92 1014.4
20260510054057 8 0 0.0 1.6 0.00 0.00 0.00 92 1014.3
20260510053559 7 0 0.0 1.6 0.00 0.00 0.00 91 1014.4
20260510053055 7 0 0.0 1.6 0.00 0.00 0.00 92 1014.4
20260510052557 7 0 0.0 4.8 0.00 0.00 0.00 91 1014.4
20260510052056 7 0 0.0 4.8 0.00 0.00 0.00 91 1014.4
20260510051557 7 0 0.0 0.0 0.00 0.00 0.00 91 1014.3
20260510051100 7 0 0.0 0.0 0.00 0.00 0.00 91 1014.4
20260510050557 7 0 0.0 0.0 0.00 0.00 0.00 91 1014.4
20260510050100 7 0 0.0 0.0 0.00 0.00 0.00 91 1014.4
20260510045559 7 0 0.0 0.0 0.00 0.00 0.00 91 1014.4
20260510045056 6 0 0.0 4.8 0.00 0.00 0.00 90 1014.3
20260510044611 6 0 0.0 4.8 0.00 0.00 0.00 90 1014.4
20260510044100 6 0 0.0 0.0 0.00 0.00 0.00 90 1014.4
20260510043557 6 0 0.0 0.0 0.00 0.00 0.00 89 1014.5
20260510043104 6 0 0.0 0.0 0.00 0.00 0.00 89 1014.7
20260510042557 6 0 0.0 0.0 0.00 0.00 0.00 89 1014.7
20260510042059 6 0 0.0 0.0 0.00 0.00 0.00 89 1014.7
20260510041559 6 0 0.0 0.0 0.00 0.00 0.00 89 1014.7
20260510041057 6 0 0.0 0.0 0.00 0.00 0.00 88 1014.7
20260510040558 6 0 0.0 0.0 0.00 0.00 0.00 88 1014.7
20260510040056 6 0 0.0 0.0 0.00 0.00 0.00 88 1014.7
20260510035557 6 0 0.0 0.0 0.00 0.00 0.00 87 1014.8
20260510035059 6 0 0.0 0.0 0.00 0.00 0.00 87 1014.9
20260510034558 6 0 0.0 0.0 0.00 0.00 0.00 87 1014.9
20260510034058 6 0 0.0 0.0 0.00 0.00 0.00 87 1014.8
20260510033601 6 0 0.0 1.6 0.00 0.00 0.00 86 1014.9
20260510033123 6 0 0.0 3.2 0.00 0.00 0.00 86 1014.9
20260510032600 6 0 0.0 4.8 0.00 0.00 0.00 86 1014.9
20260510032057 6 0 0.0 4.8 0.00 0.00 0.00 86 1015.0
20260510031619 6 360 0.0 0.0 0.00 0.00 0.00 86 1015.0
20260510031058 6 0 0.0 0.0 0.00 0.00 0.00 86 1014.9
20260510030557 7 0 0.0 0.0 0.00 0.00 0.00 86 1015.0
20260510030101 7 0 0.0 0.0 0.00 0.00 0.00 86 1014.9
20260510025557 7 0 0.0 0.0 0.00 0.00 0.00 86 1015.1
20260510025058 7 0 0.0 0.0 0.00 0.00 0.00 86 1015.1
20260510024557 7 0 0.0 0.0 0.00 0.00 0.00 86 1015.1
20260510024101 7 0 0.0 1.6 0.00 0.00 0.00 87 1015.2
20260510023557 7 0 0.0 4.8 0.00 0.00 0.00 87 1015.2
20260510023055 7 0 0.0 4.8 0.00 0.00 0.00 87 1015.3
20260510022557 7 360 0.0 6.4 0.00 0.00 0.00 87 1015.3
20260510022058 7 0 0.0 6.4 0.00 0.00 0.00 87 1015.2
20260510021556 7 360 3.2 6.4 0.00 0.00 0.00 87 1015.3
20260510021056 7 360 3.2 8.0 0.00 0.00 0.00 87 1015.3
20260510020557 7 360 3.2 8.0 0.00 0.00 0.00 86 1015.4
20260510020058 7 360 3.2 8.0 0.00 0.00 0.00 86 1015.4
20260510015600 7 360 1.6 4.8 0.00 0.00 0.00 85 1015.5
20260510015056 7 360 0.0 1.6 0.00 0.00 0.00 84 1015.6
20260510014608 7 0 0.0 0.0 0.00 0.00 0.00 84 1015.7
20260510014058 7 0 0.0 0.0 0.00 0.00 0.00 84 1015.8
20260510013558 7 0 0.0 0.0 0.00 0.00 0.00 85 1015.7
20260510013057 7 0 0.0 3.2 0.00 0.00 0.00 85 1015.8
20260510012557 7 0 0.0 4.8 0.00 0.00 0.00 85 1015.7
20260510012059 7 0 0.0 6.4 0.00 0.00 0.00 85 1015.6
20260510011600 7 0 1.6 9.7 0.00 0.00 0.00 85 1015.7
20260510011101 7 360 1.6 12.9 0.00 0.00 0.00 85 1015.7
20260510010557 7 360 1.6 12.9 0.00 0.00 0.00 85 1015.6
20260510010103 7 360 4.8 12.9 0.00 0.00 0.00 85 1015.7
20260510005557 7 360 4.8 12.9 0.00 0.00 0.00 85 1015.8
20260510005056 7 360 4.8 12.9 0.00 0.00 0.00 86 1015.8
20260510004558 7 360 4.8 12.9 0.00 0.00 0.00 86 1015.8
20260510004056 7 360 3.2 9.7 0.00 0.00 0.00 86 1016.0
20260510003558 7 360 3.2 9.7 0.00 0.00 0.00 86 1016.1
20260510003101 7 360 3.2 9.7 0.00 0.00 0.00 86 1016.1
20260510002556 7 360 4.8 9.7 0.00 0.00 0.00 86 1016.1
20260510002057 7 360 4.8 9.7 0.00 0.00 0.00 86 1016.1
20260510001557 7 360 1.6 8.0 0.00 0.00 0.00 86 1016.3
20260510001124 7 360 1.6 9.7 0.00 0.00 0.00 86 1016.3
20260510000601 7 360 1.6 12.9 0.00 0.00 0.00 87 1016.4
20260510000059 7 360 1.6 12.9 0.00 0.00 0.00 87 1016.4
20260509235559 7 360 3.2 14.5 0.00 0.00 0.00 87 1016.5
20260509235057 7 360 4.8 14.5 0.00 0.00 0.00 88 1016.6
20260509234606 7 360 3.2 9.7 0.00 0.00 0.00 88 1016.6
20260509234057 7 360 3.2 9.7 0.00 0.00 0.00 88 1016.6
20260509233559 7 360 4.8 9.7 0.00 0.00 0.00 88 1016.6
20260509233057 7 360 4.8 9.7 0.00 0.00 0.00 87 1016.7
20260509232557 6 360 3.2 9.7 0.00 0.00 0.00 87 1016.7
20260509232057 6 360 3.2 8.0 0.00 0.00 0.00 86 1016.9
20260509231556 6 360 1.6 8.0 0.00 0.00 0.00 86 1017.0
20260509231057 6 0 1.6 6.4 0.00 0.00 0.00 85 1017.0
20260509230556 6 360 1.6 6.4 0.00 0.00 0.00 85 1017.1
20260509230057 6 360 3.2 6.4 0.00 0.00 0.00 83 1017.0
20260509225557 6 360 1.6 6.4 0.00 0.00 0.00 82 1017.1
20260509225057 7 360 1.6 4.8 0.00 0.00 0.00 82 1017.3
20260509224557 7 0 1.6 3.2 0.00 0.00 0.00 82 1017.5
20260509224058 7 360 0.0 3.2 0.00 0.00 0.00 82 1017.5
20260509223557 7 0 0.0 1.6 0.00 0.00 0.00 82 1017.6